User: anonymous   Login
Location: Ciudad Delicias
(28.2170°N, 105.4670°W)
Time: 16:15:20
(UTC-07:00)
Language:

ETS-7 - Orbit

View from above orbital plane
View from above orbital plane
View from above satellite
View from above satellite

Ground track
Ground track

The orbit data is extracted from the following two-line orbital elements,

1 25064U 97074B   14354.78612885  .00051273  00000-0  66116-3 0  3339
2 25064 034.9596 121.0140 0004313 044.9544 081.9011 15.57873847950183
Epoch (UTC): 20 December 2014 18:52:01
Eccentricity: 0.0004313
inclination: 34.9596°
perigee height: 391 km
apogee height: 397 km
right ascension of ascending node: 121.0140°
argument of perigee: 44.9544°
revolutions per day: 15.57873847
mean anomaly at epoch: 81.9011°
orbit number at epoch: 95018

The dashed part of the orbit path shows where the satellite is in the earth's shadow,  

DLR